User: anonymous   Login
Location: Wawayanda State Park
(41.1833°N, 74.4333°W)
Time: 03:04:40
(UTC-04:00)
Language:

Landsat 7 - Orbit

View from above orbital plane
View from above orbital plane
View from above satellite
View from above satellite

Ground track
Ground track

The orbit data is extracted from the following two-line orbital elements,

1 25682U 99020A   18109.80258142 -.00000277  00000-0 -51457-4 0  9996
2 25682  98.1726 181.0998 0001450  98.1695 261.9667 14.57128326 11246
Epoch (UTC): 19 April 2018 19:15:43
Eccentricity: 0.0001450
inclination: 98.1726°
perigee height: 701 km
apogee height: 703 km
right ascension of ascending node: 181.0998°
argument of perigee: 98.1695°
revolutions per day: 14.57128326
mean anomaly at epoch: 261.9667°
orbit number at epoch: 1124

The dashed part of the orbit path shows where the satellite is in the earth's shadow,  

DLR